Warroad, MN

4:26 AM CST on February 25, 2017 (GMT -0600)
Warroad International-Carlson

Weather History for KRRT - January, 2014

Change the Weather History Date:

Saturday, January 11, 2014

  Actual Average Record
Temperature  
Mean Temperature 18 °F -  
Max Temperature 26 °F 11 °F 41 °F (1990)
Min Temperature 10 °F -12 °F -38 °F (1989)
Degree Days  
Heating Degree Days 47    
Moisture  
Dew Point 15 °F    
Average Humidity 87    
Maximum Humidity 93    
Minimum Humidity 79    
Precipitation  
Precipitation 0.00 in - - ()
Sea Level Pressure  
Sea Level Pressure 29.50 in    
Wind  
Wind Speed 7 mph (WSW)    
Max Wind Speed 12 mph    
Max Gust Speed -    
Visibility 5 miles    
Events Snow    
Averages and records for this station are not official NWS values.
T = Trace of Precipitation, MM = Missing Value Source: NWS Daily Summary

Daily Weather History Graph

Daily Weather History Graph

Search for Another Location

Airport or City:

Trip Planner

Search our weather history database for the weather conditions in past years. The results will help you decide how hot, cold, wet, or windy it might be!

Date:

Astronomy

Jan. 11, 2014 Rise Set
Actual Time 8:12 AM CST 4:46 PM CST
Civil Twilight 7:35 AM CST 5:23 PM CST
Nautical Twilight 6:56 AM CST 6:02 PM CST
Astronomical Twilight 6:18 AM CST 6:40 PM CST
Moon 1:35 PM CST (1/11) 4:13 AM CST (1/11)
Length of Visible Light 9h 47m
Length of Day
8h 34m
Waxing Gibbous, 83% of the Moon is Illuminated
Jan 11
Waxing Gibbous
Jan 15
Full
Jan 23
Last Quarter
Jan 30
New
Feb 6
First Quarter

Hourly Weather History & Observations

Time (CST) Temp. Windchill Dew Point Humidity Pressure Visibility Wind Dir Wind Speed Gust Speed Precip Events Conditions
12:13 AM 26.6 °F 21.2 °F 21.2 °F 80% 29.41 in 4.0 mi West 4.6 mph - N/A   Overcast
12:34 AM 24.8 °F 17.9 °F 21.2 °F 86% 29.41 in 4.0 mi West 5.8 mph - N/A   Overcast
12:54 AM 24.8 °F 16.9 °F 21.2 °F 86% 29.41 in 5.0 mi West 6.9 mph - N/A   Overcast
1:14 AM 24.8 °F 19.1 °F 21.2 °F 86% 29.40 in 4.0 mi West 4.6 mph - N/A   Overcast
1:34 AM 24.8 °F 17.9 °F 21.2 °F 86% 29.41 in 4.0 mi West 5.8 mph - N/A Snow Light Snow
1:54 AM 24.8 °F 16.9 °F 19.4 °F 80% 29.42 in 3.0 mi West 6.9 mph - N/A   Overcast
2:14 AM 24.8 °F 16.9 °F 19.4 °F 80% 29.42 in 2.0 mi West 6.9 mph - N/A Snow Light Snow
2:34 AM 24.8 °F 15.3 °F 19.4 °F 80% 29.43 in 2.5 mi West 9.2 mph - N/A   Overcast
2:54 AM 24.8 °F 15.3 °F 19.4 °F 80% 29.44 in 3.0 mi West 9.2 mph - N/A   Overcast
3:13 AM 24.8 °F 14.0 °F 19.4 °F 80% 29.44 in 4.0 mi WNW 11.5 mph - N/A   Overcast
3:34 AM 23.0 °F 12.4 °F 19.4 °F 86% 29.45 in 5.0 mi West 10.4 mph - N/A   Overcast
3:54 AM 21.2 °F 11.7 °F 19.4 °F 93% 29.46 in 4.0 mi West 8.1 mph - N/A   Overcast
4:13 AM 21.2 °F 10.9 °F 17.6 °F 86% 29.47 in 4.0 mi West 9.2 mph - N/A   Overcast
4:34 AM 21.2 °F 10.1 °F 17.6 °F 86% 29.48 in 4.0 mi WNW 10.4 mph - N/A   Overcast
4:54 AM 19.4 °F 11.5 °F 15.8 °F 86% 29.47 in 3.0 mi West 5.8 mph - N/A   Overcast
5:14 AM 19.4 °F 9.5 °F 15.8 °F 86% 29.48 in 3.0 mi West 8.1 mph - N/A   Overcast
5:34 AM 19.4 °F 9.5 °F 15.8 °F 86% 29.48 in 3.0 mi West 8.1 mph - N/A   Overcast
5:54 AM 19.4 °F 9.5 °F 15.8 °F 86% 29.49 in 4.0 mi West 8.1 mph - N/A   Overcast
6:14 AM 17.6 °F 10.7 °F 15.8 °F 93% 29.49 in 4.0 mi West 4.6 mph - N/A   Overcast
6:34 AM 17.6 °F 7.3 °F 12.2 °F 79% 29.50 in 4.0 mi West 8.1 mph - N/A   Overcast
6:54 AM 17.6 °F 10.7 °F 12.2 °F 79% 29.50 in 4.0 mi West 4.6 mph - N/A   Overcast
7:14 AM 15.8 °F 6.1 °F 12.2 °F 86% 29.51 in 3.0 mi West 6.9 mph - N/A   Overcast
7:34 AM 15.8 °F 8.6 °F 10.4 °F 79% 29.52 in 4.0 mi WSW 4.6 mph - N/A   Overcast
7:54 AM 12.2 °F 4.3 °F 8.6 °F 85% 29.50 in 4.0 mi WSW 4.6 mph - N/A   Scattered Clouds
8:14 AM 12.2 °F 6.1 °F 8.6 °F 85% 29.50 in 4.0 mi WSW 3.5 mph - N/A   Clear
8:34 AM 10.4 °F -1.5 °F 6.8 °F 85% 29.51 in 4.0 mi WSW 8.1 mph - N/A   Scattered Clouds
8:54 AM 10.4 °F -0.4 °F 6.8 °F 85% 29.52 in 4.0 mi West 6.9 mph - N/A Snow Light Snow
9:14 AM 12.2 °F 0.7 °F 8.6 °F 85% 29.53 in 5.0 mi WSW 8.1 mph - N/A   Overcast
9:34 AM 10.4 °F -3.3 °F 8.6 °F 92% 29.53 in 5.0 mi WSW 10.4 mph - N/A Snow Light Snow
9:54 AM 10.4 °F -0.4 °F 8.6 °F 92% 29.54 in 3.0 mi WSW 6.9 mph - N/A Snow Light Snow
10:14 AM 12.2 °F -0.2 °F 8.6 °F 85% 29.54 in 2.5 mi West 9.2 mph - N/A Snow Light Snow
10:34 AM 12.2 °F 0.7 °F 8.6 °F 85% 29.55 in 2.5 mi WSW 8.1 mph - N/A Snow Light Snow
10:53 AM 12.2 °F 0.7 °F 8.6 °F 85% 29.55 in 2.5 mi West 8.1 mph - N/A Snow Light Snow
11:14 AM 14.0 °F 2.9 °F 10.4 °F 86% 29.56 in 4.0 mi West 8.1 mph - N/A Snow Light Snow
11:34 AM 14.0 °F 2.0 °F 10.4 °F 86% 29.56 in 4.0 mi West 9.2 mph - N/A Snow Light Snow
11:53 AM 15.8 °F 4.2 °F 10.4 °F 79% 29.55 in 5.0 mi West 9.2 mph - N/A Snow Light Snow
12:14 PM 15.8 °F 4.2 °F 12.2 °F 86% 29.54 in 5.0 mi West 9.2 mph - N/A Snow Light Snow
12:34 PM 15.8 °F 5.1 °F 12.2 °F 86% 29.54 in 5.0 mi West 8.1 mph - N/A   Overcast
12:53 PM 17.6 °F 10.7 °F 12.2 °F 79% 29.54 in 5.0 mi West 4.6 mph - N/A   Overcast
1:14 PM 17.6 °F 12.3 °F 12.2 °F 79% 29.54 in 7.0 mi West 3.5 mph - N/A   Overcast
1:34 PM 17.6 °F 9.3 °F 14.0 °F 86% 29.54 in 7.0 mi WSW 5.8 mph - N/A   Overcast
1:54 PM 17.6 °F 12.3 °F 14.0 °F 86% 29.53 in 10.0 mi WSW 3.5 mph - N/A   Overcast
2:14 PM 17.6 °F 9.3 °F 15.8 °F 93% 29.53 in 7.0 mi SW 5.8 mph - N/A   Overcast
2:33 PM 19.4 °F 10.4 °F 15.8 °F 86% 29.53 in 7.0 mi SW 6.9 mph - N/A   Overcast
2:54 PM 19.4 °F 10.4 °F 15.8 °F 86% 29.53 in 7.0 mi SW 6.9 mph - N/A   Overcast
3:14 PM 19.4 °F 10.4 °F 15.8 °F 86% 29.53 in 7.0 mi WSW 6.9 mph - N/A   Overcast
3:33 PM 19.4 °F 10.4 °F 15.8 °F 86% 29.54 in 7.0 mi SW 6.9 mph - N/A   Overcast
3:54 PM 19.4 °F 12.8 °F 15.8 °F 86% 29.54 in 4.0 mi WSW 4.6 mph - N/A   Overcast
4:14 PM 19.4 °F 11.5 °F 15.8 °F 86% 29.54 in 4.0 mi WSW 5.8 mph - N/A   Overcast
4:34 PM 19.4 °F 11.5 °F 15.8 °F 86% 29.55 in 3.0 mi SW 5.8 mph - N/A   Overcast
4:53 PM 19.4 °F 11.5 °F 15.8 °F 86% 29.54 in 4.0 mi SSW 5.8 mph - N/A   Overcast
5:14 PM 19.4 °F 10.4 °F 17.6 °F 93% 29.55 in 5.0 mi SSW 6.9 mph - N/A   Overcast
5:34 PM 19.4 °F 12.8 °F 17.6 °F 93% 29.54 in 5.0 mi SSW 4.6 mph - N/A   Overcast
5:54 PM 19.4 °F 10.4 °F 17.6 °F 93% 29.54 in 7.0 mi SSW 6.9 mph - N/A   Overcast
6:14 PM 19.4 °F 11.5 °F 17.6 °F 93% 29.54 in 7.0 mi SSW 5.8 mph - N/A   Overcast
6:34 PM 19.4 °F 10.4 °F 17.6 °F 93% 29.54 in 5.0 mi SSW 6.9 mph - N/A   Overcast
6:54 PM 19.4 °F 12.8 °F 17.6 °F 93% 29.52 in 5.0 mi South 4.6 mph - N/A   Overcast
7:14 PM 19.4 °F 12.8 °F 17.6 °F 93% 29.51 in 7.0 mi South 4.6 mph - N/A   Overcast
7:34 PM 19.4 °F 10.4 °F 17.6 °F 93% 29.51 in 7.0 mi South 6.9 mph - N/A   Overcast
7:53 PM 19.4 °F 10.4 °F 17.6 °F 93% 29.50 in 5.0 mi South 6.9 mph - N/A   Overcast
8:14 PM 19.4 °F 12.8 °F 17.6 °F 93% 29.48 in 5.0 mi South 4.6 mph - N/A   Overcast
8:34 PM 19.4 °F 12.8 °F 17.6 °F 93% 29.49 in 5.0 mi South 4.6 mph - N/A   Overcast
8:54 PM 19.4 °F 11.5 °F 17.6 °F 93% 29.48 in 7.0 mi South 5.8 mph - N/A   Overcast
9:14 PM 19.4 °F 9.5 °F 15.8 °F 86% 29.46 in 7.0 mi SSE 8.1 mph - N/A   Overcast
9:34 PM 19.4 °F 11.5 °F 15.8 °F 86% 29.46 in 7.0 mi South 5.8 mph - N/A   Overcast
9:54 PM 19.4 °F 11.5 °F 17.6 °F 93% 29.47 in 7.0 mi South 5.8 mph - N/A   Overcast
10:14 PM 21.2 °F 12.6 °F 17.6 °F 86% 29.47 in 7.0 mi South 6.9 mph - N/A   Overcast
10:34 PM 21.2 °F 14.9 °F 17.6 °F 86% 29.46 in 10.0 mi South 4.6 mph - N/A   Overcast
10:54 PM 21.2 °F 12.6 °F 17.6 °F 86% 29.45 in 10.0 mi South 6.9 mph - N/A   Overcast
11:14 PM 21.2 °F 12.6 °F 17.6 °F 86% 29.43 in 10.0 mi SSE 6.9 mph - N/A   Overcast
11:34 PM 21.2 °F 12.6 °F 17.6 °F 86% 29.41 in 7.0 mi SSE 6.9 mph - N/A   Scattered Clouds
11:54 PM 21.2 °F 11.7 °F 17.6 °F 86% 29.39 in 7.0 mi SE 8.1 mph - N/A   Clear